Temp_Advection
nan nan nan nan nan nan nan nan nan nan nan nan nan nan nan nan nan nan nan nan nan nan
nan 0 0 0 0 0 0 0 0 0 0 0 -0 -0 -0 -0 -0 0 0 0 0 nan
nan -0 -0 -0 0 0 0 0 0 0 0 0 0 -0 -0 -0 0 -0 -0 -0 -0 nan
nan -0 -0 -0 -0 0 -0 -0 -0 -0 0 0 0 -0 -0 -0 -0 -0 -0 -0 -0 nan
nan 0 0 -0 -0 -0 -0 -0 -0 -0 -0 0 -0 -0 -0 -0 0 -0 -0 -0 -0 nan
nan 0 0 0 0 0 -0 -0 -0 0 -0 -0 -0 -0 0 -0 -0 -0 -0 -0 -0 nan
nan -0 -0 -0 -0 -0 -0 -0 -0 -0 -0 -0 -0 -0 -0 -0 -0 -0 -0 -0 -0 nan
nan -0 -0 -0 -0 -0 -0 -0 -0 -0 -0 -0 -0 -0 -0 -0 0 -0 -0 -0 -0 nan
nan -0 -0 -0 -0 -0 -0 -0 -0 -0 -0 -0 -0 -0 -0 -0 -0 -0 -0 -0 -0 nan
nan -0 -0 -0 -0 -0 -1 -1 -1 -1 -1 -1 -0 -0 -0 -0 -0 -0 -0 -0 -0 nan
nan -0 -0 -0 -0 -0 -1 -1 -1 -1 -1 -1 -1 -1 -0 -0 -0 -0 -0 -0 -0 nan
nan -0 -0 -0 -0 -0 -0 -0 -0 -0 -0 -0 -1 -1 -0 -0 -0 -0 -0 -0 0 nan
nan -0 -0 -1 -1 -1 -1 -1 -1 -1 -1 -0 -0 -0 -0 -0 -0 -0 -1 -1 -0 nan
nan nan nan nan nan nan nan nan nan nan nan nan nan nan nan nan nan nan nan nan nan nan
Wind_Speed
12 12 12 12 12 12 12 12 13 12 12 11 11 11 11 12 12 12 11 11 11 11
13 13 13 13 14 13 14 14 14 13 13 13 13 12 12 13 13 14 14 13 13 13
14 14 14 14 14 14 14 15 15 15 15 15 15 15 15 15 15 16 15 16 16 15
13 14 15 14 14 14 15 16 16 16 17 17 17 18 19 19 19 20 20 19 20 21
11 11 11 12 12 13 14 16 17 17 18 19 19 19 21 21 22 22 23 23 23 23
6 8 10 11 12 13 16 17 17 17 18 19 19 20 22 23 24 24 24 24 25 26
8 7 5 4 5 8 10 12 14 15 17 18 20 21 22 23 24 26 26 26 26 27
9 9 8 8 9 9 10 11 12 13 14 15 16 17 20 22 23 24 26 26 27 27
10 11 12 12 12 13 13 14 15 16 17 18 18 19 21 24 27 28 29 31 33 35
12 13 14 15 16 17 18 19 20 21 21 22 21 22 22 23 24 25 26 26 26 27
15 17 19 20 22 23 24 25 25 25 25 26 25 25 25 26 27 28 27 26 26 27
18 21 23 25 26 26 26 27 27 27 27 28 29 27 27 26 27 28 28 27 26 26
21 23 25 26 27 27 26 27 27 29 29 30 31 29 27 27 28 30 31 31 29 27
24 25 26 26 26 27 28 29 30 30 31 30 29 28 27 26 26 27 30 32 30 28
Wind_Direction
260 263 268 268 269 274 281 289 297 302 304 308 310 314 316 318 314 308 306 303 301 300
266 267 268 269 270 272 275 280 286 290 292 296 298 302 306 310 310 306 305 303 302 300
270 271 270 271 273 273 274 277 281 283 285 287 289 293 296 298 299 298 300 301 300 298
265 272 275 277 275 272 273 276 278 280 281 282 284 287 291 293 294 294 295 295 296 297
238 248 265 278 285 283 275 271 274 276 277 281 282 284 285 287 288 289 290 292 291 291
245 254 259 263 261 263 273 278 278 278 280 283 284 284 283 283 283 283 282 282 284 286
51 42 26 350 312 300 296 292 289 288 287 288 289 288 287 286 284 283 282 282 281 282
31 21 12 2 354 347 338 331 325 319 314 310 308 301 296 293 291 289 289 289 289 288
23 16 10 4 358 350 344 339 334 329 325 320 316 311 305 299 295 292 290 289 288 285
14 6 359 351 344 339 335 331 327 324 320 316 314 311 308 305 303 303 303 302 299 295
357 351 345 339 335 331 328 325 323 319 316 313 311 309 307 305 302 300 301 305 306 305
342 337 333 329 326 323 320 318 317 316 315 313 312 311 308 306 303 301 300 299 296 295
333 331 329 326 324 321 318 314 313 310 309 308 307 307 305 303 301 300 300 300 297 294
327 324 322 319 316 313 312 311 309 306 306 303 302 299 298 295 292 290 292 295 294 291
Height
1511 1512 1513 1514 1514 1514 1514 1514 1515 1515 1514 1514 1513 1512 1511 1510 1510 1509 1509 1508 1507 1506
1508 1509 1509 1510 1511 1511 1511 1511 1511 1512 1512 1511 1510 1509 1508 1507 1507 1507 1506 1505 1504 1503
1504 1505 1506 1506 1507 1508 1508 1507 1507 1508 1508 1508 1507 1506 1505 1504 1504 1504 1504 1502 1501 1500
1502 1502 1502 1502 1503 1504 1504 1504 1503 1503 1504 1503 1503 1503 1501 1501 1501 1500 1500 1499 1498 1496
1497 1498 1499 1499 1500 1500 1500 1500 1499 1499 1499 1499 1499 1498 1497 1497 1497 1496 1495 1495 1493 1492
1495 1495 1495 1495 1496 1496 1496 1496 1495 1495 1495 1495 1494 1493 1492 1492 1491 1491 1490 1489 1487 1486
1493 1493 1493 1493 1494 1493 1493 1492 1492 1491 1491 1490 1489 1488 1487 1486 1485 1484 1483 1482 1481 1480
1494 1494 1493 1493 1492 1492 1491 1490 1489 1488 1487 1485 1485 1483 1481 1480 1479 1478 1476 1475 1474 1473
1494 1494 1493 1492 1491 1490 1489 1488 1487 1485 1483 1482 1481 1479 1478 1476 1473 1472 1470 1468 1466 1465
1494 1493 1492 1491 1490 1488 1487 1485 1483 1481 1479 1477 1476 1474 1472 1470 1467 1465 1463 1461 1458 1456
1492 1491 1489 1488 1486 1484 1482 1480 1478 1476 1474 1471 1470 1468 1466 1464 1461 1458 1456 1454 1452 1450
1489 1487 1485 1483 1481 1479 1476 1474 1472 1470 1467 1465 1463 1462 1460 1458 1455 1451 1449 1448 1446 1444
1485 1483 1481 1478 1476 1474 1472 1469 1467 1464 1463 1460 1457 1455 1453 1452 1449 1445 1442 1440 1438 1437
1481 1479 1477 1474 1472 1469 1466 1463 1461 1458 1455 1453 1451 1448 1447 1445 1443 1439 1436 1433 1430 1429